Flag for U.S.A. Weather past 2 weeks in Rancho Cucamonga, California, U.S.A.

Now
50 °F

Light rain. Overcast.


Feels Like: 48 °F
Forecast: 45 / 54 °F
Wind: 6 mph from Northwest

Location: Ontario International Airport

Current Time: Mar 1, 2015 at 12:51:37 AM

Latest Report: Feb 28, 2015 at 11:53 PM


Visibility: 9 mi

Pressure: 29.92 "Hg

Humidity: 89%

Dew point: 47 °F

Location of Rancho CucamongaLocation

Historic Weather in Rancho Cucamonga — Graph

°F

Rancho Cucamonga temperature yesterday

Maximum temperature yesterday: 60 °F (at 12:53 PM)
Minimum temperature yesterday: 50 °F (at 11:53 PM)
Average temperature yesterday: 55 °F

Past Weeks' High & Low Weather Summary

 TemperatureHumidityPressure
High84 °F (Feb 14, 1:53 PM)100% (Feb 18, 6:53 AM)30.23 "Hg (Feb 18, 6:53 AM)
Low42 °F (Feb 24, 5:53 AM)11% (Feb 14, 1:53 PM)29.74 "Hg (Feb 27, 6:53 PM)
Average59 °F62%29.97 "Hg
* Reported Feb 13 11:53 PM — Feb 28 11:53 PM, Rancho Cucamonga, Weather by CustomWeather, © 2015

Note: Actual official high and low records may vary slightly from our data, if they occured in-between our weather recording intervals... More about our weather records

Advertising

Rancho Cucamonga weather history for previous 24 hours

 ConditionsComfort  
Time TempWeatherWind HumidityBarometerVisibility
11:53 PM
Sat, Feb 28
50 °FLight rain. Overcast.6 mph89%29.92 "Hg9 mi
10:53 PM52 °FLight rain. Mostly cloudy.3 mph83%29.90 "Hg10 mi
9:53 PM52 °FPassing clouds.No wind80%29.89 "Hg10 mi
8:53 PM52 °FPartly cloudy.No wind80%29.89 "Hg10 mi
7:53 PM52 °FPassing clouds.8 mph75%29.88 "Hg10 mi
6:53 PM55 °FPassing clouds.12 mph64%29.87 "Hg10 mi
5:53 PM56 °FPartly cloudy.8 mph60%29.85 "Hg10 mi
4:53 PM58 °FScattered clouds.14 mph54%29.83 "Hg10 mi
3:53 PM57 °FPartly sunny.9 mph55%29.83 "Hg10 mi
2:53 PM59 °FBroken clouds.14 mph49%29.82 "Hg10 mi
1:53 PM58 °FPartly sunny.13 mph51%29.82 "Hg10 mi
12:53 PM60 °FBroken clouds.13 mph52%29.83 "Hg10 mi
11:53 AM58 °FMostly cloudy.10 mph58%29.85 "Hg10 mi
10:53 AM59 °FBroken clouds.16 mph49%29.85 "Hg10 mi
9:53 AM58 °FPassing clouds.14 mph54%29.85 "Hg10 mi
8:53 AM55 °FPartly sunny.10 mph64%29.84 "Hg10 mi
7:53 AM53 °FBroken clouds.8 mph72%29.82 "Hg10 mi
6:53 AM51 °FBroken clouds.3 mph77%29.79 "Hg10 mi
5:53 AM51 °FPassing clouds.5 mph80%29.78 "Hg10 mi
4:53 AM51 °FPassing clouds.No wind83%29.77 "Hg10 mi
3:53 AM52 °FPartly cloudy.7 mph83%29.75 "Hg10 mi
2:53 AM54 °FMostly cloudy.6 mph80%29.75 "Hg10 mi
1:53 AM53 °FPartly cloudy.3 mph83%29.76 "Hg10 mi
12:53 AM54 °FPartly cloudy.7 mph83%29.76 "Hg10 mi
Weather by CustomWeather, © 2015

See weather overviewHow to use our weather pages